TimeEST,TemperatureF,Dew PointF,Humidity,Sea Level PressureIn,VisibilityMPH,Wind Direction,Wind SpeedMPH,Gust SpeedMPH,PrecipitationIn,Events,Conditions,WindDirDegrees,DateUTC
12:15 AM,42.3,41.4,97,29.64,7.0,West,9.2,-,N/A,,Overcast,270,2013-03-06 05:15:00
12:35 AM,42.8,34.3,72,29.65,10.0,West,17.3,23.0,N/A,,Overcast,280,2013-03-06 05:35:00
12:55 AM,41.9,30.4,64,29.66,10.0,West,17.3,32.2,N/A,,Overcast,280,2013-03-06 05:55:00
1:15 AM,40.8,27.9,60,29.66,10.0,West,17.3,21.9,N/A,,Scattered Clouds,280,2013-03-06 06:15:00
1:55 AM,39.9,25.7,57,29.68,10.0,West,16.1,-,N/A,,Clear,260,2013-03-06 06:55:00
2:15 AM,39.4,24.3,55,29.68,10.0,West,16.1,23.0,N/A,,Clear,270,2013-03-06 07:15:00
2:35 AM,39.4,23.4,53,29.69,10.0,West,19.6,26.5,N/A,,Clear,260,2013-03-06 07:35:00
2:55 AM,39.2,23.2,53,29.69,10.0,West,13.8,24.2,N/A,,Clear,270,2013-03-06 07:55:00
3:15 AM,38.3,23.4,55,29.69,10.0,West,16.1,23.0,N/A,,Clear,280,2013-03-06 08:15:00
3:35 AM,37.6,23.2,56,29.68,10.0,West,16.1,21.9,N/A,,Clear,260,2013-03-06 08:35:00
3:55 AM,37.9,19.6,48,29.70,10.0,West,27.6,35.7,N/A,,Clear,280,2013-03-06 08:55:00
4:15 AM,37.2,21.6,53,29.70,10.0,West,12.7,24.2,N/A,,Clear,260,2013-03-06 09:15:00
4:55 AM,35.8,21.2,55,29.72,10.0,WNW,10.4,20.7,N/A,,Scattered Clouds,290,2013-03-06 09:55:00
5:15 AM,35.4,21.6,57,29.72,10.0,West,11.5,-,N/A,,Scattered Clouds,270,2013-03-06 10:15:00
5:35 AM,34.7,21.6,59,29.73,10.0,West,15.0,21.9,N/A,,Clear,270,2013-03-06 10:35:00
5:55 AM,33.8,21.4,60,29.74,10.0,West,12.7,-,N/A,,Clear,270,2013-03-06 10:55:00
6:55 AM,33.8,18.7,54,29.75,10.0,West,13.8,-,N/A,,Clear,280,2013-03-06 11:55:00
7:35 AM,33.8,19.6,56,29.77,10.0,West,11.5,-,N/A,,Scattered Clouds,280,2013-03-06 12:35:00
7:55 AM,33.8,20.1,57,29.78,10.0,West,12.7,21.9,N/A,,Clear,270,2013-03-06 12:55:00
8:15 AM,34.7,20.5,56,29.79,10.0,West,10.4,16.1,N/A,,Clear,270,2013-03-06 13:15:00
8:35 AM,35.4,20.7,55,29.80,10.0,West,11.5,17.3,N/A,,Clear,280,2013-03-06 13:35:00
8:55 AM,37.4,20.1,50,29.81,10.0,West,13.8,23.0,N/A,,Clear,270,2013-03-06 13:55:00
9:15 AM,37.9,19.8,48,29.80,10.0,West,13.8,26.5,N/A,,Clear,280,2013-03-06 14:15:00
9:35 AM,38.5,19.6,47,29.82,10.0,West,18.4,23.0,N/A,,Clear,270,2013-03-06 14:35:00
9:55 AM,39.2,19.4,45,29.83,10.0,NW,11.5,-,N/A,,Clear,310,2013-03-06 14:55:00
10:15 AM,39.9,19.4,44,29.84,10.0,West,10.4,16.1,N/A,,Clear,280,2013-03-06 15:15:00
10:35 AM,41.2,21.4,45,29.84,10.0,WNW,8.1,19.6,N/A,,Clear,300,2013-03-06 15:35:00
10:55 AM,41.4,20.1,43,29.85,10.0,WNW,10.4,-,N/A,,Clear,290,2013-03-06 15:55:00
11:15 AM,41.5,20.7,43,29.86,10.0,West,12.7,17.3,N/A,,Scattered Clouds,280,2013-03-06 16:15:00
11:35 AM,42.3,20.7,42,29.87,10.0,WNW,9.2,-,N/A,,Clear,290,2013-03-06 16:35:00
11:55 AM,43.3,21.4,42,29.87,10.0,West,8.1,-,N/A,,Clear,260,2013-03-06 16:55:00
12:15 PM,43.5,21.6,42,29.87,10.0,West,6.9,-,N/A,,Clear,280,2013-03-06 17:15:00
12:35 PM,45.9,23.0,41,29.86,10.0,NNW,17.3,24.2,N/A,,Clear,330,2013-03-06 17:35:00
12:55 PM,46.0,23.4,41,29.86,10.0,NW,17.3,-,N/A,,Clear,310,2013-03-06 17:55:00
1:15 PM,46.9,24.6,42,29.87,10.0,NNW,19.6,26.5,N/A,,Clear,330,2013-03-06 18:15:00
1:35 PM,45.5,23.9,43,29.87,10.0,NNW,18.4,28.8,N/A,,Clear,340,2013-03-06 18:35:00
1:55 PM,45.5,24.8,44,29.88,10.0,NNW,20.7,28.8,N/A,,Clear,330,2013-03-06 18:55:00
2:15 PM,45.0,24.8,45,29.89,10.0,NNW,17.3,29.9,N/A,,Clear,330,2013-03-06 19:15:00
2:35 PM,43.2,23.7,46,29.90,10.0,NNW,18.4,27.6,N/A,,Scattered Clouds,340,2013-03-06 19:35:00
3:15 PM,43.2,24.4,48,29.91,10.0,NNW,27.6,36.8,N/A,,Clear,340,2013-03-06 20:15:00
3:35 PM,43.2,24.3,47,29.92,10.0,NW,20.7,32.2,N/A,,Clear,320,2013-03-06 20:35:00
4:15 PM,43.2,24.4,48,29.95,10.0,NNW,24.2,33.4,N/A,,Clear,330,2013-03-06 21:15:00
4:55 PM,41.7,24.8,51,29.98,10.0,NW,20.7,29.9,N/A,,Clear,320,2013-03-06 21:55:00
5:15 PM,41.5,24.8,51,29.99,10.0,NNW,10.4,21.9,N/A,,Clear,340,2013-03-06 22:15:00
5:35 PM,41.0,25.0,53,30.00,10.0,NNW,17.3,24.2,N/A,,Clear,330,2013-03-06 22:35:00
6:15 PM,39.2,25.0,57,30.04,10.0,NW,12.7,-,N/A,,Clear,310,2013-03-06 23:15:00
6:35 PM,38.1,25.3,60,30.05,10.0,NW,15.0,20.7,N/A,,Clear,310,2013-03-06 23:35:00
6:55 PM,37.4,25.2,61,30.07,10.0,NW,13.8,24.2,N/A,,Clear,310,2013-03-06 23:55:00
7:15 PM,36.7,25.2,63,30.07,10.0,NW,12.7,-,N/A,,Clear,320,2013-03-07 00:15:00
7:35 PM,35.8,25.0,65,30.07,10.0,NW,9.2,-,N/A,,Clear,310,2013-03-07 00:35:00
7:55 PM,35.4,25.3,67,30.07,10.0,NW,11.5,-,N/A,,Clear,310,2013-03-07 00:55:00
8:15 PM,34.9,25.2,68,30.07,10.0,WNW,6.9,-,N/A,,Clear,300,2013-03-07 01:15:00
8:35 PM,34.0,25.2,70,30.07,10.0,WNW,5.8,-,N/A,,Clear,300,2013-03-07 01:35:00
8:55 PM,33.8,24.8,70,30.07,10.0,NW,6.9,-,N/A,,Clear,320,2013-03-07 01:55:00
9:15 PM,35.1,24.8,66,30.08,10.0,NW,10.4,-,N/A,,Clear,320,2013-03-07 02:15:00
9:35 PM,34.7,24.8,67,30.08,10.0,WNW,5.8,-,N/A,,Clear,300,2013-03-07 02:35:00
9:55 PM,34.0,24.8,69,30.09,10.0,NW,8.1,-,N/A,,Clear,310,2013-03-07 02:55:00
10:15 PM,34.2,24.8,69,30.09,10.0,NW,8.1,-,N/A,,Clear,310,2013-03-07 03:15:00
10:35 PM,33.8,24.8,70,30.10,10.0,WNW,6.9,-,N/A,,Clear,290,2013-03-07 03:35:00
10:55 PM,33.8,24.6,69,30.11,10.0,WNW,8.1,-,N/A,,Clear,300,2013-03-07 03:55:00
11:15 PM,33.3,24.8,71,30.11,10.0,NW,9.2,-,N/A,,Clear,310,2013-03-07 04:15:00
11:35 PM,33.8,24.6,69,30.11,10.0,NNW,3.5,-,N/A,,Clear,330,2013-03-07 04:35:00
11:55 PM,32.9,24.8,72,30.11,10.0,NNW,3.5,-,N/A,,Clear,330,2013-03-07 04:55:00